Location: PSU-Greenbush Astrophysical Observatory
(37.5140°N, 94.9880°W)
Time: 21:56:49
(UTC-06:00)

Explorer 7 - Visible Passes

Search period start: 26 January 2020 00:00
Search period end: 05 February 2020 00:00
Orbit: 485 x 679 km, 50.3° (Epoch: 26 January)

Date Brightness Start Highest point End Pass type
(mag) Time Alt. Az. Time Alt. Az. Time Alt. Az.
26 Jan 7.9 05:49:35 28° SW 05:49:35 28° SW 05:52:49 10° SSE visible
27 Jan 8.7 05:54:52 16° SSW 05:54:52 16° SSW 05:56:40 10° S visible
29 Jan 9.3 19:59:33 10° SSW 20:00:04 13° SSW 20:00:04 13° SSW visible
30 Jan 9.0 20:04:08 10° SW 20:05:28 20° SW 20:05:28 20° SW visible
31 Jan 8.7 18:30:36 10° SSE 18:32:52 15° SE 18:34:27 12° ESE visible
31 Jan 8.8 20:09:02 10° WSW 20:10:48 25° WSW 20:10:48 25° WSW visible
01 Feb 8.0 18:34:14 10° S 18:37:37 26° SE 18:39:43 17° E visible
01 Feb 8.9 20:14:10 10° WSW 20:16:04 24° W 20:16:04 24° W visible
02 Feb 7.2 18:38:32 10° SSW 18:42:26 45° SE 18:44:55 19° ENE visible
02 Feb 9.2 20:19:32 10° W 20:21:15 20° WNW 20:21:15 20° WNW visible
03 Feb 6.6 18:43:12 10° SW 18:47:19 80° SE 18:50:01 19° NE visible
03 Feb 9.5 20:25:05 10° WNW 20:26:21 16° WNW 20:26:21 16° WNW visible
04 Feb 7.1 18:48:11 10° WSW 18:52:14 61° NW 18:55:03 18° NE visible
04 Feb 9.7 20:30:44 10° WNW 20:31:23 12° NW 20:31:23 12° NW visible
